User: anonymous
Location: Goheenville
(40.9070°N, 79.3720°W)
Time: 16:53:14
(UTC-04:00)
Language:

Cosmos 1727 Rocket - Orbit

View from above orbital plane
View from above orbital plane
View from above satellite
View from above satellite

Ground track
Ground track

The orbit data is extracted from the following two-line orbital elements,

1 16511U 86008B   14210.36637409  .00000079  00000-0  65747-4 0  5458
2 16511 082.9448 281.3934 0023533 349.6650 056.8945 13.75766239431374
Epoch (UTC): 29 July 2014 08:47:34
Eccentricity: 0.0023533
inclination: 82.9448°
perigee height: 961 km
apogee height: 996 km
right ascension of ascending node: 281.3934°
argument of perigee: 349.6650°
revolutions per day: 13.75766239
mean anomaly at epoch: 56.8945°
orbit number at epoch: 43137

The dashed part of the orbit path shows where the satellite is in the earth's shadow,  

DLR